| time (UTC) | temp F | wind direction | speed knots | gust knots | rain 1hr in | rain 24hr in | rain mn in | humidity % | barometer mb |
| 20260503184601 | 79 | 230 | 2.6 | 4.3 | 0.00 | 0.00 | 0.00 | 38 | 1010.9 |
| 20260503183032 | 78 | 173 | 0.9 | 4.3 | 0.00 | 0.00 | 0.00 | 40 | 1011.0 |
| 20260503181515 | 77 | 319 | 0.9 | 5.2 | 0.00 | 0.00 | 0.00 | 43 | 1011.1 |
| 20260503180053 | 77 | 283 | 0.0 | 4.3 | 0.00 | 0.00 | 0.00 | 43 | 1011.3 |
| 20260503174545 | 75 | 60 | 1.7 | 5.2 | 0.00 | 0.00 | 0.00 | 45 | 1011.4 |
| 20260503173013 | 74 | 84 | 1.7 | 5.2 | 0.00 | 0.00 | 0.00 | 46 | 1011.5 |
| 20260503171549 | 73 | 18 | 1.7 | 7.0 | 0.00 | 0.00 | 0.00 | 47 | 1011.6 |
| 20260503081539 | 56 | 181 | 0.0 | 0.0 | 0.00 | 0.00 | 0.00 | 87 | 1012.6 |
| 20260503071533 | 57 | 181 | 0.0 | 0.0 | 0.00 | 0.00 | 0.00 | 85 | 1012.6 |
| 20260503070111 | 58 | 181 | 0.0 | 0.0 | 0.00 | 0.00 | 0.00 | 84 | 1012.6 |
| 20260503060103 | 60 | 181 | 0.0 | 0.0 | 0.00 | 0.00 | 0.00 | 81 | 1012.8 |
| 20260503054540 | 60 | 181 | 0.0 | 0.0 | 0.00 | 0.00 | 0.00 | 80 | 1012.7 |
| 20260503053045 | 61 | 181 | 0.0 | 1.7 | 0.00 | 0.00 | 0.00 | 79 | 1012.5 |
| 20260503051515 | 61 | 181 | 0.0 | 2.6 | 0.00 | 0.00 | 0.00 | 77 | 1012.5 |
| 20260503050029 | 62 | 343 | 0.0 | 2.6 | 0.00 | 0.00 | 0.00 | 75 | 1012.5 |
| 20260503044508 | 63 | 76 | 0.9 | 6.1 | 0.00 | 0.00 | 0.00 | 75 | 1012.9 |
| 20260503043026 | 62 | 22 | 0.9 | 4.3 | 0.00 | 0.00 | 0.00 | 76 | 1012.2 |
| 20260503041523 | 62 | 9 | 0.9 | 1.7 | 0.00 | 0.00 | 0.00 | 76 | 1012.3 |
| 20260503040046 | 62 | 4 | 0.0 | 0.9 | 0.00 | 0.00 | 0.00 | 76 | 1012.6 |
| 20260503034517 | 63 | 4 | 0.0 | 0.9 | 0.00 | 0.00 | 0.00 | 74 | 1012.7 |
| 20260503033003 | 64 | 4 | 0.9 | 1.7 | 0.00 | 0.00 | 0.00 | 73 | 1012.5 |
| 20260503031530 | 64 | 4 | 1.7 | 3.5 | 0.00 | 0.00 | 0.00 | 72 | 1012.4 |
| 20260503030057 | 64 | 15 | 2.6 | 4.3 | 0.00 | 0.00 | 0.00 | 72 | 1012.2 |
| 20260503024515 | 64 | 60 | 0.9 | 2.6 | 0.00 | 0.00 | 0.00 | 71 | 1012.4 |
| 20260503023051 | 64 | 166 | 1.7 | 4.3 | 0.00 | 0.00 | 0.00 | 71 | 1012.7 |
| 20260503021536 | 65 | 196 | 2.6 | 12.2 | 0.00 | 0.00 | 0.00 | 70 | 1012.7 |
| 20260503020011 | 67 | 220 | 1.7 | 8.7 | 0.00 | 0.00 | 0.00 | 68 | 1012.7 |
| 20260503014532 | 68 | 162 | 1.7 | 4.3 | 0.00 | 0.00 | 0.00 | 64 | 1012.0 |
| 20260503013048 | 68 | 158 | 0.0 | 2.6 | 0.00 | 0.00 | 0.00 | 64 | 1011.9 |
| 20260503011530 | 68 | 220 | 0.0 | 4.3 | 0.00 | 0.00 | 0.00 | 64 | 1011.8 |
| 20260503010046 | 68 | 253 | 0.0 | 3.5 | 0.00 | 0.00 | 0.00 | 64 | 1011.8 |
| 20260503004505 | 69 | 183 | 1.7 | 4.3 | 0.00 | 0.00 | 0.00 | 63 | 1011.8 |
| 20260503003039 | 69 | 174 | 0.0 | 4.3 | 0.00 | 0.00 | 0.00 | 63 | 1011.7 |
| 20260503001512 | 68 | 179 | 2.6 | 6.1 | 0.00 | 0.00 | 0.00 | 63 | 1011.7 |
| 20260503000048 | 69 | 148 | 2.6 | 7.0 | 0.00 | 0.00 | 0.00 | 62 | 1011.8 |
| 20260502234531 | 69 | 179 | 0.9 | 7.8 | 0.00 | 0.00 | 0.00 | 61 | 1011.8 |
| 20260502233043 | 70 | 193 | 3.5 | 6.1 | 0.00 | 0.00 | 0.00 | 58 | 1012.1 |
| 20260502231517 | 71 | 295 | 0.0 | 6.1 | 0.00 | 0.00 | 0.00 | 57 | 1012.1 |
| 20260502230037 | 69 | 297 | 0.9 | 4.3 | 0.00 | 0.00 | 0.00 | 59 | 1012.2 |
| 20260502224554 | 68 | 198 | 1.7 | 3.5 | 0.00 | 0.00 | 0.00 | 59 | 1012.4 |
| 20260502223034 | 69 | 201 | 0.9 | 6.1 | 0.00 | 0.00 | 0.00 | 59 | 1012.6 |
| 20260502221550 | 68 | 185 | 1.7 | 4.3 | 0.00 | 0.00 | 0.00 | 61 | 1012.9 |
| 20260502220034 | 65 | 8 | 2.6 | 7.8 | 0.00 | 0.00 | 0.00 | 62 | 1013.1 |
| 20260502214554 | 66 | 195 | 0.9 | 7.0 | 0.00 | 0.00 | 0.00 | 63 | 1013.3 |
| 20260502213049 | 66 | 68 | 0.9 | 3.5 | 0.00 | 0.00 | 0.00 | 62 | 1013.5 |
| 20260502211518 | 66 | 179 | 2.6 | 5.2 | 0.00 | 0.00 | 0.00 | 62 | 1013.7 |
| 20260502210042 | 63 | 220 | 2.6 | 4.3 | 0.00 | 0.00 | 0.00 | 66 | 1013.9 |
| 20260502204605 | 62 | 331 | 1.7 | 5.2 | 0.00 | 0.00 | 0.00 | 68 | 1014.3 |
| 20260502204502 | 62 | 337 | 1.7 | 5.2 | 0.00 | 0.00 | 0.00 | 68 | 1014.3 |
| 20260502203024 | 62 | 299 | 0.9 | 5.2 | 0.00 | 0.00 | 0.00 | 71 | 1014.6 |
| 20260502201512 | 62 | 270 | 1.7 | 5.2 | 0.00 | 0.00 | 0.00 | 67 | 1014.8 |
| 20260502200018 | 59 | 266 | 0.9 | 7.0 | 0.00 | 0.00 | 0.00 | 72 | 1015.0 |
| 20260502194548 | 59 | 318 | 0.9 | 6.1 | 0.00 | 0.00 | 0.00 | 72 | 1015.0 |
| 20260502193004 | 59 | 186 | 1.7 | 3.5 | 0.00 | 0.00 | 0.00 | 73 | 1015.0 |
| 20260502191541 | 57 | 18 | 0.9 | 3.5 | 0.00 | 0.00 | 0.00 | 75 | 1015.4 |
| 20260502190050 | 56 | 289 | 0.0 | 2.6 | 0.00 | 0.00 | 0.00 | 76 | 1015.7 |